• In Austria
  • List of Countries
  • For 7 days
  • Water Temperature
  • Satellite Maps
  • Weather Map
  • News
  • Weather Widgets
  • user-avatar
    Login

    Hourly Weather Bolshoe Babino

    Today, 26 September, Wednesday

    Time Temperature Precipitation Wind Pressure Humidity
    00:00 +1°C° 0 mm 4 mps 752 mmHg 78%
    01:00 +1°C° 0 mm 4 mps 753 mmHg 79%
    02:00 0°C° 0 mm 4 mps 753 mmHg 79%
    03:00 +1°C° 0 mm 3 mps 753 mmHg 83%
    04:00 +1°C° 0 mm 3 mps 754 mmHg 86%
    05:00 +1°C° 0 mm 3 mps 754 mmHg 89%
    06:00 +1°C° 0 mm 4 mps 754 mmHg 86%
    07:00 +3°C° 0 mm 4 mps 754 mmHg 83%
    08:00 +4°C° 0 mm 4 mps 755 mmHg 80%
    09:00 +5°C° 0 mm 5 mps 754 mmHg 73%
    10:00 +7°C° 0 mm 5 mps 754 mmHg 66%
    11:00 +9°C° 0 mm 5 mps 754 mmHg 59%
    12:00 +10°C° 0 mm 6 mps 754 mmHg 58%
    13:00 +10°C° 0 mm 6 mps 753 mmHg 58%
    14:00 +11°C° 0 mm 6 mps 753 mmHg 57%
    15:00 +10°C° 0 mm 6 mps 752 mmHg 59%
    16:00 +9°C° 0 mm 6 mps 751 mmHg 61%
    17:00 +8°C° 0 mm 6 mps 750 mmHg 63%
    18:00 +8°C° 0.3 mm 7 mps 750 mmHg 68%
    19:00 +6°C° 0.3 mm 7 mps 749 mmHg 73%
    20:00 +5°C° 0.3 mm 8 mps 748 mmHg 78%
    21:00 +5°C° 0.5 mm 8 mps 747 mmHg 81%
    22:00 +5°C° 0.5 mm 9 mps 746 mmHg 83%
    23:00 +5°C° 0.5 mm 10 mps 745 mmHg 86%

    Tomorrow, 27 September, Thursday

    Time Temperature Precipitation Wind Pressure Humidity
    00:00 +5°C° 0.6 mm 10 mps 744 mmHg 87%
    01:00 +5°C° 0.6 mm 10 mps 743 mmHg 87%
    02:00 +5°C° 0.6 mm 9 mps 742 mmHg 88%
    03:00 +5°C° 0.2 mm 10 mps 742 mmHg 89%
    04:00 +6°C° 0.2 mm 10 mps 741 mmHg 89%
    05:00 +6°C° 0.2 mm 10 mps 741 mmHg 89%
    06:00 +7°C° 0.7 mm 9 mps 741 mmHg 90%
    07:00 +7°C° 0.7 mm 8 mps 741 mmHg 90%
    08:00 +9°C° 0.7 mm 7 mps 741 mmHg 91%
    09:00 +10°C° 0.1 mm 6 mps 742 mmHg 82%
    10:00 +11°C° 0.1 mm 6 mps 742 mmHg 73%
    11:00 +13°C° 0.1 mm 5 mps 742 mmHg 64%
    12:00 +13°C° 0 mm 6 mps 742 mmHg 62%
    13:00 +13°C° 0 mm 6 mps 742 mmHg 61%
    14:00 +14°C° 0 mm 6 mps 743 mmHg 59%
    15:00 +13°C° 0 mm 5 mps 743 mmHg 63%
    16:00 +12°C° 0 mm 5 mps 743 mmHg 67%
    17:00 +12°C° 0 mm 4 mps 743 mmHg 71%
    18:00 +11°C° 0 mm 4 mps 744 mmHg 73%
    19:00 +10°C° 0 mm 4 mps 744 mmHg 75%
    20:00 +8°C° 0 mm 4 mps 744 mmHg 77%
    21:00 +8°C° 0 mm 4 mps 744 mmHg 79%
    22:00 +8°C° 0 mm 4 mps 743 mmHg 82%
    23:00 +7°C° 0 mm 5 mps 743 mmHg 84%

    Day after tomorrow, 28 September, Friday

    Time Temperature Precipitation Wind Pressure Humidity
    00:00 +8°C° 0 mm 6 mps 742 mmHg 85%
    01:00 +9°C° 0 mm 7 mps 741 mmHg 85%
    02:00 +10°C° 0 mm 8 mps 741 mmHg 85%
    03:00 +11°C° 0 mm 8 mps 740 mmHg 85%
    04:00 +11°C° 0 mm 8 mps 739 mmHg 85%
    05:00 +12°C° 0 mm 9 mps 738 mmHg 84%
    06:00 +12°C° 0.2 mm 9 mps 738 mmHg 84%
    07:00 +12°C° 0.2 mm 9 mps 738 mmHg 85%
    08:00 +12°C° 0.2 mm 9 mps 737 mmHg 85%
    09:00 +12°C° 0.6 mm 8 mps 738 mmHg 84%
    10:00 +12°C° 0.6 mm 8 mps 738 mmHg 84%
    11:00 +12°C° 0.6 mm 8 mps 739 mmHg 83%
    12:00 +12°C° 0.2 mm 7 mps 739 mmHg 78%
    13:00 +12°C° 0.2 mm 7 mps 740 mmHg 72%
    14:00 +12°C° 0.2 mm 7 mps 740 mmHg 67%
    15:00 +12°C° 0 mm 5 mps 741 mmHg 70%
    16:00 +11°C° 0 mm 4 mps 741 mmHg 72%
    17:00 +10°C° 0 mm 3 mps 742 mmHg 75%
    18:00 +9°C° 0 mm 2 mps 743 mmHg 78%
    19:00 +8°C° 0 mm 2 mps 743 mmHg 81%
    20:00 +8°C° 0 mm 1 mps 744 mmHg 84%
    21:00 +7°C° 0 mm 1 mps 744 mmHg 85%
    22:00 +7°C° 0 mm 1 mps 744 mmHg 86%
    23:00 +6°C° 0 mm 1 mps 745 mmHg 86%

    29 September, Saturday

    Time Temperature Precipitation Wind Pressure Humidity
    00:00 +6°C° 0 mm 1 mps 745 mmHg 87%
    01:00 +6°C° 0 mm 1 mps 746 mmHg 89%
    02:00 +6°C° 0 mm 1 mps 746 mmHg 90%
    03:00 +5°C° 0 mm 1 mps 747 mmHg 91%
    04:00 +4°C° 0 mm 2 mps 747 mmHg 92%
    05:00 +4°C° 0 mm 2 mps 748 mmHg 94%
    06:00 +4°C° 0 mm 2 mps 748 mmHg 90%
    07:00 +5°C° 0 mm 2 mps 749 mmHg 87%
    08:00 +5°C° 0 mm 2 mps 749 mmHg 84%
    09:00 +7°C° 0 mm 3 mps 750 mmHg 76%
    10:00 +8°C° 0 mm 3 mps 751 mmHg 67%
    11:00 +9°C° 0 mm 3 mps 751 mmHg 59%
    12:00 +10°C° 0 mm 3 mps 751 mmHg 55%
    13:00 +10°C° 0 mm 3 mps 752 mmHg 52%
    14:00 +10°C° 0 mm 3 mps 752 mmHg 48%
    15:00 +9°C° 0 mm 3 mps 752 mmHg 52%
    16:00 +8°C° 0 mm 2 mps 752 mmHg 56%
    17:00 +7°C° 0 mm 2 mps 752 mmHg 60%
    18:00 +7°C° 0 mm 1 mps 753 mmHg 62%
    19:00 +6°C° 0 mm 1 mps 754 mmHg 63%
    20:00 +5°C° 0 mm 1 mps 754 mmHg 65%
    21:00 +4°C° 0 mm 1 mps 754 mmHg 66%
    22:00 +4°C° 0 mm 1 mps 755 mmHg 67%
    23:00 +3°C° 0 mm 0 mps 755 mmHg 69%

    30 September, Sunday

    Time Temperature Precipitation Wind Pressure Humidity
    00:00 +2°C° 0 mm 0 mps 755 mmHg 69%
    01:00 +3°C° 0 mm 1 mps 755 mmHg 70%
    02:00 +3°C° 0 mm 1 mps 755 mmHg 71%
    03:00 +3°C° 0 mm 1 mps 755 mmHg 72%
    04:00 +3°C° 0 mm 1 mps 755 mmHg 73%
    05:00 +1°C° 0 mm 2 mps 755 mmHg 73%
    06:00 +2°C° 0 mm 2 mps 755 mmHg 71%
    07:00 +3°C° 0 mm 2 mps 755 mmHg 69%
    08:00 +4°C° 0 mm 2 mps 755 mmHg 67%
    09:00 +5°C° 0 mm 3 mps 755 mmHg 62%
    10:00 +7°C° 0 mm 3 mps 755 mmHg 57%
    11:00 +9°C° 0 mm 3 mps 755 mmHg 52%
    12:00 +10°C° 0 mm 4 mps 755 mmHg 50%
    13:00 +10°C° 0 mm 4 mps 754 mmHg 48%
    14:00 +11°C° 0 mm 4 mps 753 mmHg 47%
    15:00 +10°C° 0 mm 3 mps 753 mmHg 53%
    16:00 +9°C° 0 mm 3 mps 753 mmHg 59%
    17:00 +8°C° 0 mm 2 mps 752 mmHg 65%
    18:00 +7°C° 0 mm 2 mps 752 mmHg 68%
    19:00 +5°C° 0 mm 3 mps 752 mmHg 71%
    20:00 +4°C° 0 mm 3 mps 752 mmHg 74%
    21:00 +4°C° 0 mm 3 mps 752 mmHg 76%
    22:00 +4°C° 0 mm 3 mps 752 mmHg 78%
    23:00 +4°C° 0 mm 3 mps 752 mmHg 80%

    1 October, Monday

    Time Temperature Precipitation Wind Pressure Humidity
    00:00 +4°C° 0 mm 3 mps 751 mmHg 81%
    01:00 +4°C° 0 mm 3 mps 751 mmHg 81%
    02:00 +4°C° 0 mm 3 mps 751 mmHg 82%
    03:00 +4°C° 0 mm 3 mps 751 mmHg 82%
    04:00 +4°C° 0 mm 3 mps 750 mmHg 83%
    05:00 +4°C° 0 mm 3 mps 750 mmHg 83%
    06:00 +5°C° 0 mm 3 mps 750 mmHg 82%
    07:00 +5°C° 0 mm 3 mps 750 mmHg 80%
    08:00 +7°C° 0 mm 3 mps 750 mmHg 78%
    09:00 +8°C° 0 mm 3 mps 750 mmHg 74%
    10:00 +10°C° 0 mm 3 mps 749 mmHg 69%
    11:00 +12°C° 0 mm 3 mps 749 mmHg 65%
    12:00 +12°C° 0 mm 3 mps 749 mmHg 64%
    13:00 +13°C° 0 mm 3 mps 749 mmHg 62%
    14:00 +13°C° 0 mm 4 mps 748 mmHg 61%
    15:00 +12°C° 0 mm 3 mps 748 mmHg 66%
    16:00 +11°C° 0 mm 3 mps 748 mmHg 71%
    17:00 +10°C° 0 mm 3 mps 747 mmHg 76%
    18:00 +10°C° 0.1 mm 3 mps 747 mmHg 79%
    19:00 +9°C° 0.1 mm 3 mps 747 mmHg 81%
    20:00 +9°C° 0.1 mm 3 mps 747 mmHg 83%
    21:00 +9°C° 0.4 mm 2 mps 747 mmHg 85%
    22:00 +9°C° 0.4 mm 2 mps 747 mmHg 86%
    23:00 +9°C° 0.4 mm 2 mps 747 mmHg 88%
    Show more